| time (UTC) | temp F | wind direction | speed MPH | gust MPH | rain 1hr in | rain 24hr in | rain mn in | humidity % | barometer mb |
| 20260504235627 | 69 | 175 | 4.0 | 7.0 | 0.00 | 0.00 | 0.00 | 26 | 1010.0 |
| 20260504235525 | 69 | 158 | 3.0 | 6.0 | 0.00 | 0.00 | 0.00 | 26 | 1010.0 |
| 20260504234542 | 69 | 270 | 0.0 | 0.0 | 0.00 | 0.00 | 0.00 | 26 | 1010.1 |
| 20260504232624 | 68 | 315 | 2.0 | 4.0 | 0.00 | 0.00 | 0.00 | 28 | 1010.0 |
| 20260504231626 | 67 | 317 | 0.0 | 5.0 | 0.00 | 0.00 | 0.00 | 28 | 1010.0 |
| 20260504230644 | 67 | 315 | 0.0 | 4.0 | 0.00 | 0.00 | 0.00 | 28 | 1009.8 |
| 20260504225626 | 68 | 275 | 4.0 | 7.0 | 0.00 | 0.00 | 0.00 | 28 | 1010.1 |
| 20260504224724 | 69 | 319 | 3.0 | 7.0 | 0.00 | 0.00 | 0.00 | 28 | 1010.1 |
| 20260504223727 | 69 | 299 | 5.0 | 9.0 | 0.00 | 0.00 | 0.00 | 29 | 1010.1 |
| 20260504222741 | 71 | 322 | 3.0 | 9.0 | 0.00 | 0.00 | 0.00 | 28 | 1010.1 |
| 20260504221824 | 71 | 287 | 5.0 | 9.0 | 0.00 | 0.00 | 0.00 | 28 | 1010.2 |
| 20260504215924 | 71 | 308 | 3.0 | 8.0 | 0.00 | 0.00 | 0.00 | 27 | 1009.9 |
| 20260504214925 | 70 | 309 | 1.0 | 4.0 | 0.00 | 0.00 | 0.00 | 27 | 1010.2 |
| 20260504213928 | 70 | 297 | 2.0 | 6.0 | 0.00 | 0.00 | 0.00 | 30 | 1010.3 |
| 20260504212926 | 68 | 325 | 2.0 | 7.0 | 0.00 | 0.00 | 0.00 | 31 | 1010.5 |
| 20260504211927 | 68 | 325 | 2.0 | 7.0 | 0.00 | 0.00 | 0.00 | 31 | 1010.5 |
| 20260504210927 | 68 | 316 | 3.0 | 6.0 | 0.00 | 0.00 | 0.00 | 31 | 1010.6 |
| 20260504205942 | 69 | 321 | 4.0 | 12.0 | 0.00 | 0.00 | 0.00 | 29 | 1010.7 |
| 20260504205025 | 69 | 192 | 4.0 | 8.0 | 0.00 | 0.00 | 0.00 | 31 | 1010.9 |
| 20260504204941 | 69 | 227 | 4.0 | 6.0 | 0.00 | 0.00 | 0.00 | 31 | 1010.9 |
| 20260504203927 | 68 | 188 | 5.0 | 7.0 | 0.00 | 0.00 | 0.00 | 33 | 1010.7 |
| 20260504202926 | 68 | 170 | 7.0 | 11.0 | 0.00 | 0.00 | 0.00 | 34 | 1010.7 |
| 20260504201925 | 68 | 161 | 7.0 | 9.0 | 0.00 | 0.00 | 0.00 | 32 | 1010.8 |
| 20260504200025 | 69 | 166 | 8.0 | 10.0 | 0.00 | 0.00 | 0.00 | 30 | 1010.9 |
| 20260504195041 | 71 | 161 | 7.0 | 10.0 | 0.00 | 0.00 | 0.00 | 29 | 1011.0 |
| 20260504194126 | 71 | 127 | 6.0 | 9.0 | 0.00 | 0.00 | 0.00 | 29 | 1011.1 |
| 20260504193127 | 70 | 148 | 6.0 | 12.0 | 0.00 | 0.00 | 0.00 | 31 | 1011.1 |
| 20260504192125 | 70 | 161 | 9.0 | 13.0 | 0.00 | 0.00 | 0.00 | 31 | 1011.2 |
| 20260504191026 | 69 | 154 | 7.0 | 13.0 | 0.00 | 0.00 | 0.00 | 31 | 1011.2 |
| 20260504190126 | 69 | 153 | 9.0 | 15.0 | 0.00 | 0.00 | 0.00 | 30 | 1011.4 |
| 20260504185126 | 70 | 135 | 6.0 | 10.0 | 0.00 | 0.00 | 0.00 | 31 | 1011.6 |
| 20260504184141 | 69 | 138 | 6.0 | 10.0 | 0.00 | 0.00 | 0.00 | 31 | 1011.8 |
| 20260504183226 | 69 | 132 | 7.0 | 11.0 | 0.00 | 0.00 | 0.00 | 31 | 1011.7 |
| 20260504182226 | 69 | 140 | 5.0 | 9.0 | 0.00 | 0.00 | 0.00 | 31 | 1012.0 |
| 20260504180324 | 68 | 141 | 6.0 | 9.0 | 0.00 | 0.00 | 0.00 | 32 | 1012.2 |
| 20260504175326 | 68 | 150 | 5.0 | 9.0 | 0.00 | 0.00 | 0.00 | 32 | 1012.3 |
| 20260504174325 | 67 | 126 | 6.0 | 10.0 | 0.00 | 0.00 | 0.00 | 35 | 1012.6 |
| 20260504173341 | 67 | 136 | 5.0 | 8.0 | 0.00 | 0.00 | 0.00 | 35 | 1012.6 |
| 20260504172426 | 67 | 133 | 4.0 | 7.0 | 0.00 | 0.00 | 0.00 | 33 | 1012.7 |
| 20260504170426 | 67 | 140 | 4.0 | 7.0 | 0.00 | 0.00 | 0.00 | 35 | 1013.0 |
| 20260504150642 | 61 | 174 | 1.0 | 3.0 | 0.00 | 0.00 | 0.00 | 44 | 1013.5 |
| 20260504140543 | 56 | 225 | 1.0 | 3.0 | 0.00 | 0.00 | 0.00 | 57 | 1013.7 |
| 20260504110525 | 52 | 292 | 0.0 | 0.0 | 0.00 | 0.00 | 0.00 | 51 | 1013.5 |
| 20260504100525 | 52 | 360 | 1.0 | 1.0 | 0.00 | 0.00 | 0.00 | 49 | 1013.4 |
| 20260504080827 | 53 | 44 | 5.0 | 7.0 | 0.00 | 0.00 | 0.00 | 35 | 1013.1 |
| 20260504045935 | 58 | 315 | 0.0 | 0.0 | 0.00 | 0.00 | 0.00 | 31 | 1013.0 |
| 20260504044931 | 57 | 315 | 0.0 | 0.0 | 0.00 | 0.00 | 0.00 | 32 | 1013.1 |
| 20260504043932 | 58 | 315 | 0.0 | 0.0 | 0.00 | 0.00 | 0.00 | 31 | 1013.0 |
| 20260504041932 | 61 | 315 | 0.0 | 0.0 | 0.00 | 0.00 | 0.00 | 26 | 1013.0 |
| 20260504041030 | 63 | 315 | 0.0 | 0.0 | 0.00 | 0.00 | 0.00 | 24 | 1013.0 |
| 20260504040130 | 64 | 315 | 0.0 | 0.0 | 0.00 | 0.00 | 0.00 | 22 | 1012.9 |
| 20260504035133 | 64 | 315 | 0.0 | 0.0 | 0.00 | 0.00 | 0.00 | 23 | 1012.9 |
| 20260504034230 | 65 | 336 | 2.0 | 4.0 | 0.00 | 0.00 | 0.00 | 22 | 1012.9 |
| 20260504033231 | 65 | 270 | 2.0 | 3.0 | 0.00 | 0.00 | 0.00 | 22 | 1012.9 |
| 20260504032232 | 66 | 315 | 2.0 | 3.0 | 0.00 | 0.00 | 0.00 | 21 | 1013.0 |
| 20260504031332 | 67 | 337 | 0.0 | 3.0 | 0.00 | 0.00 | 0.00 | 20 | 1012.6 |
| 20260504030331 | 67 | 315 | 2.0 | 4.0 | 0.00 | 0.00 | 0.00 | 20 | 1012.6 |
| 20260504024431 | 66 | 360 | 2.0 | 3.0 | 0.00 | 0.00 | 0.00 | 21 | 1012.7 |
| 20260504022533 | 68 | 360 | 2.0 | 4.0 | 0.00 | 0.00 | 0.00 | 21 | 1012.6 |
| 20260504021631 | 68 | 360 | 2.0 | 3.0 | 0.00 | 0.00 | 0.00 | 21 | 1012.6 |
| 20260504020633 | 69 | 360 | 2.0 | 3.0 | 0.00 | 0.00 | 0.00 | 20 | 1012.5 |
| 20260504014632 | 70 | 12 | 3.0 | 5.0 | 0.00 | 0.00 | 0.00 | 19 | 1012.4 |
| 20260504013730 | 71 | 32 | 4.0 | 6.0 | 0.00 | 0.00 | 0.00 | 18 | 1012.5 |
| 20260504012731 | 72 | 37 | 4.0 | 6.0 | 0.00 | 0.00 | 0.00 | 17 | 1012.5 |
| 20260504011830 | 72 | 270 | 0.0 | 0.0 | 0.00 | 0.00 | 0.00 | 16 | 1012.7 |
| 20260504010833 | 72 | 270 | 0.0 | 1.0 | 0.00 | 0.00 | 0.00 | 14 | 1012.8 |
| 20260504003930 | 73 | 293 | 1.0 | 5.0 | 0.00 | 0.00 | 0.00 | 15 | 1013.1 |
| 20260504002931 | 73 | 250 | 4.0 | 6.0 | 0.00 | 0.00 | 0.00 | 15 | 1013.2 |
| 20260504001933 | 73 | 222 | 5.0 | 8.0 | 0.00 | 0.00 | 0.00 | 13 | 1013.3 |
| 20260504001031 | 73 | 135 | 2.0 | 7.0 | 0.00 | 0.00 | 0.00 | 14 | 1013.3 |